Weather History for Westerly, RI

Change the Weather History Date:

Tuesday, May 13, 2014

  Actual Average (KGON) Record (KGON)
Temperature  
Mean Temperature 56 °F -  
Max Temperature 66 °F 65 °F 76 °F (1980)
Min Temperature 48 °F 46 °F 34 °F (1963)
Degree Days  
Heating Degree Days 9    
Growing Degree Days 6 (Base 50)    
Moisture  
Dew Point 42 °F    
Average Humidity 60    
Maximum Humidity 84    
Minimum Humidity 38    
Precipitation  
Precipitation 0.00 in - - ()
Sea Level Pressure  
Sea Level Pressure 30.23 in    
Wind  
Wind Speed 9 mph (ENE)    
Max Wind Speed 17 mph    
Max Gust Speed 24 mph    
Visibility 10 miles    
Events      
Averages and records for this station are not official NWS values.
T = Trace of Precipitation, MM = Missing Value Source: NWS Daily Summary

Daily Weather History Graph

Daily Weather History Graph

Search for Another Location

Airport:

Trip Planner

Search our weather history database for the weather conditions in past years. The results will help you decide how hot, cold, wet, or windy it might be!

Date:

Astronomy

May. 13, 2014 Rise Set
Actual Time 5:30 AM EDT 7:57 PM EDT
Civil Twilight 4:59 AM EDT 8:28 PM EDT
Nautical Twilight 4:20 AM EDT 9:07 PM EDT
Astronomical Twilight 3:37 AM EDT 9:51 PM EDT
Moon 6:54 PM EDT (5/13) 4:46 AM EDT (5/13)
Length of Visible Light 15h 29m
Length of Day
14h 26m
Waxing Gibbous, 98% of the Moon is Illuminated
May 13
Waxing Gibbous
May 14
Full
May 21
Last Quarter
May 28
New
Jun 5
First Quarter

Hourly Weather History & Observations

Time (EDT) Temp. Dew Point Humidity Pressure Visibility Wind Dir Wind Speed Gust Speed Precip Events Conditions
12:53 AM 57.9 °F 53.1 °F 84% 30.04 in 10.0 mi Calm Calm - N/A   Clear
2:53 AM 60.1 °F 46.0 °F 60% 30.08 in 10.0 mi NNE 17.3 mph 24.2 mph N/A   Clear
3:53 AM 55.9 °F 43.0 °F 62% 30.12 in 10.0 mi NE 13.8 mph 23.0 mph N/A   Clear
4:53 AM 55.0 °F 41.0 °F 59% 30.14 in 10.0 mi NE 10.4 mph 19.6 mph N/A   Clear
5:53 AM 55.0 °F 41.0 °F 59% 30.16 in 10.0 mi NE 8.1 mph - N/A   Clear
6:53 AM 55.0 °F 39.9 °F 57% 30.19 in 10.0 mi NE 9.2 mph 18.4 mph N/A   Clear
7:53 AM 57.0 °F 39.9 °F 53% 30.22 in 10.0 mi NE 12.7 mph 23.0 mph N/A   Clear
9:53 AM 60.1 °F 39.9 °F 47% 30.23 in 10.0 mi ENE 15.0 mph - N/A   Clear
10:53 AM 62.1 °F 39.9 °F 44% 30.25 in 10.0 mi ENE 12.7 mph 23.0 mph N/A   Clear
12:53 PM 64.0 °F 37.9 °F 38% 30.25 in 10.0 mi NE 9.2 mph - N/A   Scattered Clouds
1:53 PM 61.0 °F 44.1 °F 54% 30.25 in 10.0 mi ESE 12.7 mph 21.9 mph N/A   Scattered Clouds
2:53 PM 61.0 °F 45.0 °F 56% 30.25 in 10.0 mi SE 15.0 mph - N/A   Clear
3:53 PM 57.0 °F 44.1 °F 62% 30.25 in 10.0 mi ESE 13.8 mph - N/A   Overcast
4:53 PM 57.0 °F 44.1 °F 62% 30.27 in 10.0 mi ESE 12.7 mph - N/A   Overcast
5:53 PM 55.9 °F 45.0 °F 67% 30.27 in 10.0 mi ESE 10.4 mph - N/A   Mostly Cloudy
6:53 PM 54.0 °F 44.1 °F 69% 30.26 in 10.0 mi East 10.4 mph - N/A   Clear
7:53 PM 54.0 °F 39.0 °F 57% 30.29 in 10.0 mi NE 8.1 mph - N/A   Scattered Clouds
8:53 PM 52.0 °F 37.9 °F 59% 30.31 in 10.0 mi ENE 8.1 mph - N/A   Mostly Cloudy
9:53 PM 51.1 °F 37.9 °F 61% 30.30 in 10.0 mi East 5.8 mph - N/A   Clear
10:53 PM 48.9 °F 39.9 °F 71% 30.31 in 10.0 mi East 3.5 mph - N/A   Clear
11:53 PM 48.0 °F 41.0 °F 77% 30.32 in 10.0 mi Calm Calm - N/A   Clear